User: anonymous   Login
Location: Unspecified
(0.0000°N, 0.0000°E)
Time: 03:11:34
(UTC+02:00)
Language:

Cosmos 1892 Rocket - Orbit

View from above orbital plane
View from above orbital plane
View from above satellite
View from above satellite

Ground track
Ground track

The orbit data is extracted from the following two-line orbital elements,

1 18422U 87088B   16208.18074537  .00000119  00000-0  11679-4 0  9999
2 18422  82.5134 122.3501 0021169  74.2102  37.6811 14.82873436553501
Epoch (UTC): 26 July 2016 04:20:16
Eccentricity: 0.0021169
inclination: 82.5134°
perigee height: 605 km
apogee height: 635 km
right ascension of ascending node: 122.3501°
argument of perigee: 74.2102°
revolutions per day: 14.82873436
mean anomaly at epoch: 37.6811°
orbit number at epoch: 55350

The dashed part of the orbit path shows where the satellite is in the earth's shadow,  

DLR